GW1690 Weather Reports


Display with metric or nautical units.
time (UTC)temp
F
wind
direction
speed
MPH
gust
MPH
rain 1hr
in
rain 24hr
in
rain mn
in
humidity
%
barometer
mb
20260505053022 70 183 1.0 3.0 0.00 0.50 0.00 59 1026.3
20260505052522 70 159 2.0 5.0 0.00 0.50 0.00 59 1025.5
20260505052023 70 191 2.0 4.0 0.00 0.50 0.00 59 1025.8
20260505051522 70 166 2.0 5.0 0.00 0.50 0.00 59 1026.0
20260505051022 71 181 2.0 3.0 0.00 0.50 0.00 59 1026.2
20260505050522 71 183 2.0 6.0 0.00 0.50 0.00 59 1024.5
20260505041523 71 176 3.0 6.0 0.00 0.50 0.50 59 1024.9
20260505041024 71 176 2.0 7.0 0.00 0.50 0.50 59 1025.1
20260505040525 71 178 3.0 7.0 0.00 0.50 0.50 58 1024.9
20260505040044 71 172 3.0 5.0 0.00 0.50 0.50 58 1024.4
20260505035523 71 166 3.0 6.0 0.00 0.50 0.50 58 1024.5
20260505035024 71 192 1.0 3.0 0.00 0.50 0.50 59 1025.5
20260505034523 71 184 2.0 3.0 0.00 0.50 0.50 58 1024.7
20260505034023 71 173 2.0 3.0 0.00 0.50 0.50 58 1024.2
20260505033523 72 193 1.0 2.0 0.00 0.50 0.50 57 1023.8
20260505033103 72 173 2.0 3.0 0.00 0.50 0.50 56 1021.9
20260505032524 72 175 1.0 2.0 0.00 0.50 0.50 56 1021.2
20260505032024 73 173 2.0 4.0 0.00 0.50 0.50 56 1019.9
20260505031525 73 170 2.0 4.0 0.00 0.50 0.50 55 1018.9
20260505031145 73 180 2.0 3.0 0.00 0.50 0.50 55 1018.0
20260505030524 73 170 2.0 4.0 0.00 0.50 0.50 55 1017.9
20260505030027 73 176 1.0 2.0 0.00 0.50 0.50 54 1016.9
20260505025525 74 166 2.0 5.0 0.00 0.50 0.50 54 1016.2
20260505025025 74 173 2.0 3.0 0.00 0.50 0.50 53 1015.4
20260505024524 74 175 2.0 5.0 0.00 0.50 0.50 54 1015.4
20260505024026 74 163 1.0 3.0 0.00 0.50 0.50 54 1015.6
20260505023526 74 170 2.0 3.0 0.00 0.50 0.50 54 1015.7
20260505023025 74 158 2.0 4.0 0.00 0.50 0.50 53 1014.9
20260505022526 74 162 2.0 3.0 0.00 0.50 0.50 53 1014.3
20260505022026 74 150 2.0 4.0 0.00 0.50 0.50 53 1014.7
20260505021526 74 161 1.0 3.0 0.00 0.50 0.50 53 1014.2
20260505021027 74 166 2.0 4.0 0.00 0.50 0.50 53 1014.9
20260505020526 74 164 2.0 3.0 0.00 0.50 0.50 54 1015.1
20260505020026 74 167 2.0 3.0 0.00 0.50 0.50 54 1015.6
20260505015605 74 169 2.0 4.0 0.00 0.50 0.50 53 1013.9
20260505015025 74 173 2.0 4.0 0.00 0.50 0.50 53 1014.5
20260505014522 74 161 2.0 5.0 0.00 0.50 0.50 53 1014.3
20260505014025 74 161 2.0 5.0 0.00 0.50 0.50 54 1015.2
20260505013522 74 172 2.0 5.0 0.00 0.50 0.50 53 1014.4
20260505013022 74 161 1.0 4.0 0.00 0.50 0.50 53 1014.7
20260505012522 74 171 1.0 3.0 0.00 0.50 0.50 53 1014.5
20260505012023 75 169 2.0 3.0 0.00 0.50 0.50 53 1014.5
20260505011523 75 166 1.0 3.0 0.00 0.50 0.50 53 1013.8
20260505011022 75 176 1.0 4.0 0.00 0.50 0.50 52 1012.6
20260505010522 75 172 2.0 4.0 0.00 0.50 0.50 52 1011.6
20260505010042 76 180 2.0 4.0 0.00 0.50 0.50 51 1011.3
20260505005522 76 167 2.0 4.0 0.00 0.50 0.50 51 1010.2
20260505005022 76 159 2.0 5.0 0.00 0.50 0.50 50 1009.5
20260505004523 76 156 2.0 5.0 0.00 0.50 0.50 51 1009.6
20260505004023 76 173 2.0 5.0 0.00 0.50 0.50 50 1009.5
20260505003520 76 162 2.0 4.0 0.00 0.50 0.50 50 1008.6
20260505003023 77 164 2.0 6.0 0.00 0.50 0.50 51 1010.1
20260505002523 77 161 2.0 5.0 0.00 0.50 0.50 51 1009.3
20260505002023 77 159 2.0 5.0 0.00 0.50 0.50 51 1009.9
20260505001543 77 158 2.0 5.0 0.00 0.50 0.50 51 1010.0
20260505001043 77 173 2.0 5.0 0.00 0.50 0.50 51 1009.9
20260505000525 77 163 2.0 6.0 0.00 0.50 0.50 52 1010.6
20260505000025 77 167 1.0 3.0 0.00 0.50 0.50 52 1011.2
20260504235521 78 169 2.0 4.0 0.00 0.50 0.50 51 1010.3
20260504235020 78 165 2.0 4.0 0.00 0.50 0.50 51 1011.1
20260504234521 78 157 2.0 4.0 0.00 0.50 0.50 51 1010.1
20260504234021 78 170 2.0 5.0 0.00 0.50 0.50 51 1009.8
20260504233523 78 170 2.0 5.0 0.00 0.50 0.50 50 1008.6
20260504233024 78 170 2.0 4.0 0.00 0.50 0.50 50 1009.7
20260504232525 79 157 3.0 6.0 0.00 0.50 0.50 49 1008.1
20260504232044 79 177 2.0 8.0 0.00 0.50 0.50 50 1008.9
20260504231521 78 167 2.0 5.0 0.00 0.50 0.50 51 1010.9
20260504231021 78 161 3.0 6.0 0.00 0.50 0.50 50 1008.7
20260504230521 78 157 2.0 5.0 0.00 0.50 0.50 52 1012.2
20260504230021 77 161 2.0 5.0 0.00 0.50 0.50 54 1016.9
20260504225521 77 164 2.0 6.0 0.00 0.50 0.50 56 1020.9
20260504225022 77 164 1.0 2.0 0.00 0.50 0.50 58 1023.2
20260504224523 77 182 1.0 3.0 0.00 0.50 0.50 58 1025.2
20260504224022 77 172 1.0 3.0 0.00 0.50 0.50 59 1024.4
20260504223542 77 174 1.0 2.0 0.00 0.50 0.50 60 1026.6
20260504223044 77 162 0.0 2.0 0.00 0.50 0.50 59 1026.0
20260504222521 77 162 1.0 3.0 0.00 0.50 0.50 60 1027.0
20260504222022 77 37 0.0 1.0 0.00 0.50 0.50 60 1028.1
20260504221545 77 184 1.0 3.0 0.00 0.50 0.50 58 1024.5
20260504221022 77 188 1.0 2.0 0.00 0.50 0.50 59 1025.7
20260504220522 77 164 1.0 3.0 0.00 0.50 0.50 59 1025.4
20260504220043 77 178 2.0 4.0 0.00 0.50 0.50 59 1025.6
20260504215603 77 179 1.0 3.0 0.00 0.50 0.50 59 1025.0
20260504215043 77 192 1.0 4.0 0.00 0.50 0.50 59 1024.3
20260504214523 77 178 2.0 4.0 0.00 0.50 0.50 59 1023.1
20260504214021 76 183 1.0 3.0 0.00 0.50 0.50 60 1027.2
20260504213519 76 187 1.0 4.0 0.00 0.50 0.50 61 1028.9
20260504213044 75 182 2.0 6.0 0.00 0.50 0.50 61 1028.0
20260504212523 75 182 2.0 6.0 0.00 0.50 0.50 62 1028.5
20260504212024 75 182 1.0 5.0 0.00 0.50 0.50 63 1029.2
20260504211523 75 185 2.0 4.0 0.00 0.50 0.50 64 1029.3
20260504211024 75 178 1.0 6.0 0.00 0.50 0.50 65 1028.3
20260504210523 75 175 1.0 3.0 0.00 0.50 0.50 66 1026.5
20260504210020 74 187 2.0 4.0 0.00 0.50 0.50 65 1027.6
20260504205520 73 175 2.0 3.0 0.00 0.50 0.50 68 1023.4
20260504205041 72 169 2.0 4.0 0.00 0.50 0.50 71 1022.4
20260504204520 71 180 2.0 5.0 0.00 0.50 0.50 72 1022.4
20260504204041 70 169 2.0 4.0 0.00 0.50 0.50 74 1023.3
20260504203540 70 201 2.0 4.0 0.00 0.50 0.50 77 1027.4
20260504203025 69 203 3.0 6.0 0.00 0.50 0.50 82 1034.3
20260504202526 68 214 3.0 5.0 0.00 0.50 0.50 82 1034.7
20260504202044 68 216 2.0 4.0 0.00 0.50 0.50 83 1036.2
20260504201521 67 227 2.0 5.0 0.00 0.50 0.50 86 1038.5
20260504201022 66 274 2.0 4.0 0.00 0.50 0.50 87 1038.5
20260504200541 65 276 2.0 3.0 0.00 0.50 0.50 89 1037.5
20260504200022 65 309 2.0 4.0 0.00 0.50 0.50 92 1036.0
20260504195521 65 313 1.0 4.0 0.01 0.50 0.50 92 1035.2
20260504195041 65 314 1.0 5.0 0.03 0.50 0.50 91 1033.6
20260504194521 64 313 2.0 3.0 0.03 0.50 0.50 92 1033.4
20260504194022 63 319 2.0 3.0 0.11 0.50 0.50 93 1034.3
20260504193623 63 327 3.0 4.0 0.14 0.50 0.50 93 1034.5
20260504193022 62 331 3.0 4.0 0.19 0.50 0.50 92 1033.8
20260504192522 61 338 3.0 4.0 0.39 0.50 0.50 92 1033.9
20260504192022 61 10 3.0 4.0 0.48 0.50 0.50 92 1034.6
20260504191522 61 24 2.0 3.0 0.48 0.50 0.50 94 1035.7
20260504191023 61 226 3.0 4.0 0.48 0.50 0.50 94 1035.7
20260504190523 61 226 6.0 19.0 0.48 0.50 0.50 94 1035.5
20260504190023 61 226 5.0 15.0 0.48 0.50 0.50 94 1036.8
20260504185543 61 230 5.0 8.0 0.47 0.49 0.49 93 1039.4
20260504185020 61 219 3.0 6.0 0.46 0.48 0.48 93 1042.0
20260504184521 61 224 4.0 8.0 0.45 0.47 0.47 91 1044.7
20260504184043 61 219 3.0 9.0 0.38 0.39 0.39 91 1046.7
20260504183543 62 105 3.0 7.0 0.35 0.37 0.37 89 1047.9
20260504183023 63 205 2.0 8.0 0.29 0.31 0.31 87 1046.2
20260504182523 64 173 1.0 3.0 0.09 0.11 0.11 80 1035.9
20260504182023 64 210 1.0 2.0 0.01 0.02 0.02 76 1031.4
20260504181520 64 6 2.0 3.0 0.00 0.02 0.02 76 1030.7
20260504181020 64 4 2.0 3.0 0.00 0.02 0.02 77 1032.4
20260504180520 64 3 3.0 4.0 0.01 0.02 0.02 78 1035.0
20260504180021 64 11 2.0 4.0 0.01 0.02 0.02 77 1031.9
20260504175603 64 10 2.0 3.0 0.01 0.02 0.02 75 1027.8
20260504175024 64 7 1.0 3.0 0.01 0.02 0.02 74 1026.4
20260504174524 64 36 1.0 3.0 0.02 0.02 0.02 76 1030.7
20260504174042 64 208 1.0 3.0 0.02 0.02 0.02 79 1034.5
20260504173521 64 139 1.0 3.0 0.02 0.02 0.02 77 1031.1
20260504173022 65 323 1.0 3.0 0.02 0.02 0.02 75 1027.8
20260504172541 65 8 2.0 3.0 0.02 0.02 0.02 74 1025.8
20260504172121 65 264 1.0 3.0 0.02 0.02 0.02 70 1023.1
20260504171523 66 185 1.0 2.0 0.02 0.02 0.02 69 1023.2
20260504171022 66 154 2.0 5.0 0.01 0.01 0.01 68 1024.2
20260504170521 66 169 2.0 4.0 0.01 0.01 0.01 66 1026.2
20260504151024 68 193 1.0 3.0 0.00 0.00 0.00 60 1029.2
20260504150524 69 193 1.0 1.0 0.00 0.00 0.00 60 1027.5
20260504141024 69 172 3.0 6.0 0.00 0.00 0.00 58 1021.0
20260504140542 69 166 2.0 6.0 0.00 0.00 0.00 59 1024.9
20260504130527 64 178 2.0 3.0 0.00 0.00 0.00 66 1028.2
20260504110547 58 223 1.0 4.0 0.00 0.00 0.00 76 1030.5
20260504100529 60 220 1.0 2.0 0.00 0.00 0.00 71 1024.7
20260504081530 61 222 1.0 1.0 0.00 0.00 0.00 69 1026.4
20260504081051 61 223 1.0 2.0 0.00 0.00 0.00 68 1026.7
20260504080531 61 223 1.0 4.0 0.00 0.00 0.00 68 1027.1